Location: Nitra
(0.0000°N, 18.0833°E)
Time: 18:24:14
(UTC+02:00)

Explorer 7 - All Passes

Search period start: 31 March 2023 00:00
Search period end: 10 April 2023 00:00
Orbit: 478 x 657 km, 50.3° (Epoch: 30 March)

Date Brightness Start Highest point End Pass type
(mag) Time Alt. Az. Time Alt. Az. Time Alt. Az.
31 Mar - 00:40:29 10° NW 00:44:07 55° SW 00:47:45 10° SSE night (unlit)
31 Mar - 11:01:37 10° SSE 11:03:57 14° SE 11:06:20 10° E daylight
31 Mar - 12:39:32 10° SW 12:44:05 46° NW 12:48:39 10° NNE daylight
31 Mar - 23:02:31 10° NNE 23:04:13 13° NE 23:05:54 10° E night (unlit)
01 Apr - 00:41:01 10° WNW 00:44:11 27° SW 00:47:22 10° S night (unlit)
01 Apr - 11:00:18 10° S 11:04:02 23° SE 11:07:51 10° ENE daylight
01 Apr - 12:40:11 10° WSW 12:44:09 26° NW 12:48:08 10° N daylight
01 Apr - 23:01:12 10° N 23:04:19 24° NE 23:07:21 10° ESE night (unlit)
02 Apr - 00:42:14 10° W 00:44:15 14° SW 00:46:16 10° SSW night (unlit)
02 Apr - 10:59:40 10° SSW 11:04:05 41° SE 11:08:33 10° ENE daylight
02 Apr - 12:41:28 10° W 12:44:14 15° NW 12:47:00 10° NNW daylight
02 Apr - 23:00:41 10° NNW 23:04:21 48° NE 23:07:57 10° SE night (unlit)
03 Apr - 10:59:26 10° SSW 11:04:05 75° SE 11:08:50 10° NE daylight
03 Apr - 23:00:35 10° NW 23:04:22 78° SW 23:08:04 10° SSE night (unlit)
04 Apr - 09:23:48 10° SE 09:23:58 10° SE 09:24:08 10° SE daylight
04 Apr - 10:59:29 10° SW 11:04:05 60° NW 11:08:46 10° NNE daylight
04 Apr - 23:00:50 10° WNW 23:04:21 36° SW 23:07:48 10° SSE night (unlit)
05 Apr - 09:20:51 10° S 09:23:59 18° SE 09:27:11 10° E daylight
05 Apr - 10:59:52 10° WSW 11:04:04 33° NW 11:08:21 10° NNE daylight
05 Apr - 21:21:36 10° N 21:24:23 19° NE 21:27:05 10° E night (unlit)
05 Apr - 23:01:36 10° W 23:04:20 19° SW 23:07:02 10° S night (unlit)
06 Apr - 09:19:54 10° S 09:23:57 31° SE 09:28:07 10° ENE daylight
06 Apr - 11:00:44 10° W 11:04:05 19° NW 11:07:28 10° N daylight
06 Apr - 21:20:47 10° NNW 21:24:22 35° NE 21:27:51 10° ESE night (unlit)
07 Apr - 09:19:26 10° SSW 09:23:53 56° SE 09:28:31 10° NE daylight
07 Apr - 11:02:52 10° WNW 11:04:05 11° NW 11:05:19 10° NW daylight
07 Apr - 21:20:26 10° NNW 21:24:20 75° NE 21:28:05 10° SE visible
08 Apr - 09:19:16 10° SW 09:23:49 79° NW 09:28:31 10° NNE daylight
08 Apr - 21:20:27 10° NW 21:24:15 51° SW 21:27:55 10° SSE visible
09 Apr - 07:41:30 10° SSE 07:43:41 13° SE 07:45:55 10° E daylight
09 Apr - 09:19:25 10° SW 09:23:44 43° NW 09:28:11 10° NNE daylight
09 Apr - 19:41:51 10° NNE 19:44:08 15° NE 19:46:22 10° E visible
09 Apr - 21:20:51 10° WNW 21:24:08 26° SW 21:27:20 10° S visible
